TimeCDT,TemperatureF,Dew PointF,Humidity,Sea Level PressureIn,VisibilityMPH,Wind Direction,Wind SpeedMPH,Gust SpeedMPH,PrecipitationIn,Events,Conditions,WindDirDegrees,DateUTC
12:13 AM,41.0,30.2,65,30.18,10.0,WNW,15.0,26.5,N/A,,Overcast,290,2012-10-05 05:13:00
12:33 AM,41.0,26.6,57,30.17,10.0,WNW,17.3,29.9,N/A,,Overcast,300,2012-10-05 05:33:00
12:53 AM,41.0,28.4,61,30.17,10.0,WNW,18.4,24.2,N/A,,Overcast,300,2012-10-05 05:53:00
1:14 AM,41.0,30.2,65,30.17,10.0,West,12.7,19.6,N/A,,Overcast,280,2012-10-05 06:14:00
1:33 AM,41.0,30.2,65,30.17,10.0,West,15.0,20.7,N/A,,Overcast,280,2012-10-05 06:33:00
1:53 AM,41.0,28.4,61,30.16,10.0,WNW,20.7,26.5,N/A,,Overcast,290,2012-10-05 06:53:00
2:14 AM,39.2,26.6,61,30.17,10.0,WNW,15.0,32.2,N/A,,Overcast,300,2012-10-05 07:14:00
2:33 AM,39.2,26.6,61,30.17,10.0,WNW,15.0,26.5,N/A,,Overcast,300,2012-10-05 07:33:00
2:53 AM,39.2,26.6,61,30.16,10.0,WNW,16.1,26.5,N/A,,Mostly Cloudy,300,2012-10-05 07:53:00
3:14 AM,37.4,26.6,65,30.16,10.0,WNW,15.0,24.2,N/A,,Scattered Clouds,300,2012-10-05 08:14:00
3:33 AM,37.4,26.6,65,30.16,10.0,West,12.7,18.4,N/A,,Scattered Clouds,280,2012-10-05 08:33:00
3:53 AM,35.6,26.6,70,30.16,10.0,West,9.2,18.4,N/A,,Clear,280,2012-10-05 08:53:00
4:14 AM,35.6,26.6,70,30.16,10.0,West,11.5,18.4,N/A,,Clear,270,2012-10-05 09:14:00
4:33 AM,33.8,26.6,75,30.16,10.0,West,11.5,19.6,N/A,,Clear,280,2012-10-05 09:33:00
4:53 AM,33.8,26.6,75,30.16,10.0,West,10.4,17.3,N/A,,Clear,280,2012-10-05 09:53:00
5:13 AM,33.8,26.6,75,30.16,10.0,West,11.5,17.3,N/A,,Clear,280,2012-10-05 10:13:00
5:33 AM,33.8,26.6,75,30.16,10.0,West,12.7,18.4,N/A,,Clear,280,2012-10-05 10:33:00
5:53 AM,32.0,26.6,80,30.16,10.0,West,11.5,18.4,N/A,,Clear,280,2012-10-05 10:53:00
6:13 AM,32.0,26.6,80,30.15,10.0,West,12.7,19.6,N/A,,Clear,280,2012-10-05 11:13:00
6:33 AM,32.0,26.6,80,30.15,10.0,West,12.7,19.6,N/A,,Clear,280,2012-10-05 11:33:00
6:53 AM,30.2,26.6,86,30.15,10.0,WNW,12.7,19.6,N/A,,Clear,290,2012-10-05 11:53:00
7:13 AM,30.2,26.6,86,30.15,10.0,West,11.5,18.4,N/A,,Clear,280,2012-10-05 12:13:00
7:33 AM,30.2,26.6,86,30.16,10.0,West,11.5,-,N/A,,Clear,270,2012-10-05 12:33:00
7:53 AM,30.2,26.6,86,30.16,10.0,West,12.7,20.7,N/A,,Clear,280,2012-10-05 12:53:00
8:13 AM,32.0,26.6,80,30.16,10.0,West,13.8,21.9,N/A,,Clear,270,2012-10-05 13:13:00
8:33 AM,33.8,26.6,75,30.16,10.0,West,13.8,-,N/A,,Clear,280,2012-10-05 13:33:00
8:53 AM,33.8,26.6,75,30.17,10.0,West,15.0,21.9,N/A,,Scattered Clouds,270,2012-10-05 13:53:00
9:14 AM,35.6,26.6,70,30.17,10.0,West,15.0,21.9,N/A,,Scattered Clouds,280,2012-10-05 14:14:00
9:33 AM,35.6,26.6,70,30.17,10.0,WNW,19.6,25.3,N/A,,Scattered Clouds,290,2012-10-05 14:33:00
9:53 AM,37.4,26.6,65,30.17,10.0,WNW,18.4,25.3,N/A,,Scattered Clouds,290,2012-10-05 14:53:00
10:14 AM,37.4,26.6,65,30.17,10.0,WNW,19.6,25.3,N/A,,Clear,300,2012-10-05 15:14:00
10:33 AM,39.2,26.6,61,30.17,10.0,WNW,16.1,25.3,N/A,,Clear,290,2012-10-05 15:33:00
10:53 AM,39.2,26.6,61,30.17,10.0,WNW,19.6,26.5,N/A,,Scattered Clouds,290,2012-10-05 15:53:00
11:14 AM,41.0,26.6,57,30.16,10.0,WNW,16.1,24.2,N/A,,Scattered Clouds,290,2012-10-05 16:14:00
11:33 AM,39.2,24.8,56,30.16,10.0,NW,19.6,27.6,N/A,,Mostly Cloudy,310,2012-10-05 16:33:00
11:53 AM,41.0,26.6,57,30.16,10.0,WNW,13.8,26.5,N/A,,Scattered Clouds,290,2012-10-05 16:53:00
12:14 PM,42.8,26.6,53,30.16,10.0,NW,18.4,26.5,N/A,,Mostly Cloudy,310,2012-10-05 17:14:00
12:33 PM,41.0,24.8,53,30.15,10.0,WNW,20.7,28.8,N/A,,Mostly Cloudy,290,2012-10-05 17:33:00
12:53 PM,42.8,24.8,49,30.16,10.0,WNW,18.4,26.5,N/A,,Scattered Clouds,290,2012-10-05 17:53:00
1:33 PM,42.8,24.8,49,30.15,10.0,WNW,23.0,28.8,N/A,,Mostly Cloudy,290,2012-10-05 18:33:00
1:53 PM,42.8,24.8,49,30.15,10.0,NW,18.4,27.6,N/A,,Overcast,310,2012-10-05 18:53:00
2:13 PM,42.8,24.8,49,30.15,10.0,NW,23.0,29.9,N/A,,Overcast,310,2012-10-05 19:13:00
2:33 PM,42.8,24.8,49,30.15,10.0,WNW,18.4,25.3,N/A,,Overcast,300,2012-10-05 19:33:00
2:53 PM,42.8,24.8,49,30.15,10.0,WNW,20.7,32.2,N/A,,Overcast,300,2012-10-05 19:53:00
3:13 PM,42.8,24.8,49,30.16,10.0,WNW,17.3,31.1,N/A,,Overcast,300,2012-10-05 20:13:00
3:33 PM,42.8,24.8,49,30.16,10.0,NW,18.4,27.6,N/A,,Overcast,310,2012-10-05 20:33:00
3:53 PM,41.0,24.8,53,30.16,10.0,WNW,17.3,28.8,N/A,,Overcast,300,2012-10-05 20:53:00
4:13 PM,39.2,24.8,56,30.16,10.0,WNW,21.9,31.1,N/A,,Overcast,300,2012-10-05 21:13:00
4:33 PM,39.2,24.8,56,30.16,10.0,WNW,17.3,29.9,N/A,,Overcast,300,2012-10-05 21:33:00
4:53 PM,39.2,24.8,56,30.16,10.0,WNW,19.6,28.8,N/A,,Overcast,300,2012-10-05 21:53:00
5:13 PM,39.2,24.8,56,30.16,10.0,WNW,23.0,29.9,N/A,,Overcast,300,2012-10-05 22:13:00
5:33 PM,39.2,24.8,56,30.16,10.0,WNW,17.3,32.2,N/A,,Overcast,300,2012-10-05 22:33:00
5:53 PM,39.2,24.8,56,30.16,10.0,WNW,19.6,28.8,N/A,,Overcast,290,2012-10-05 22:53:00
6:13 PM,39.2,24.8,56,30.16,10.0,WNW,16.1,26.5,N/A,,Overcast,300,2012-10-05 23:13:00
6:33 PM,39.2,24.8,56,30.16,10.0,WNW,16.1,23.0,N/A,,Overcast,290,2012-10-05 23:33:00
6:53 PM,39.2,24.8,56,30.16,10.0,WNW,18.4,29.9,N/A,,Overcast,300,2012-10-05 23:53:00
7:13 PM,39.2,24.8,56,30.17,10.0,WNW,21.9,27.6,N/A,,Overcast,290,2012-10-06 00:13:00
7:33 PM,39.2,26.6,61,30.17,10.0,WNW,18.4,24.2,N/A,,Overcast,290,2012-10-06 00:33:00
7:53 PM,39.2,24.8,56,30.17,10.0,WNW,18.4,27.6,N/A,,Overcast,300,2012-10-06 00:53:00
8:13 PM,39.2,26.6,61,30.18,10.0,NW,16.1,26.5,N/A,,Overcast,310,2012-10-06 01:13:00
8:33 PM,39.2,26.6,61,30.18,10.0,WNW,18.4,26.5,N/A,,Overcast,300,2012-10-06 01:33:00
8:53 PM,37.4,26.6,65,30.18,10.0,WNW,16.1,21.9,N/A,,Overcast,300,2012-10-06 01:53:00
9:13 PM,37.4,26.6,65,30.18,10.0,NW,17.3,24.2,N/A,,Mostly Cloudy,320,2012-10-06 02:13:00
9:33 PM,37.4,26.6,65,30.19,10.0,NW,19.6,26.5,N/A,,Scattered Clouds,310,2012-10-06 02:33:00
9:53 PM,35.6,26.6,70,30.19,10.0,NW,16.1,21.9,N/A,,Scattered Clouds,310,2012-10-06 02:53:00
10:33 PM,35.6,26.6,70,30.19,10.0,NW,11.5,20.7,N/A,,Mostly Cloudy,310,2012-10-06 03:33:00
10:53 PM,35.6,26.6,70,30.19,10.0,WNW,15.0,20.7,N/A,,Overcast,300,2012-10-06 03:53:00
11:33 PM,35.6,26.6,70,30.19,10.0,WNW,13.8,19.6,N/A,,Overcast,300,2012-10-06 04:33:00
11:53 PM,33.8,28.4,81,30.19,10.0,WNW,11.5,20.7,N/A,,Scattered Clouds,300,2012-10-06 04:53:00